Miscellaneous Local Product
Issued by NWS North Platte, NE

Home | Current Version | Previous Version | Text Only | Print | Product List | Glossary On
Versions: 1 2 3 4 5 6 7 8 9 10 11 12 13 14 15 16 17 18 19 20 21 22 23 24 25 26 27 28 29 30 31 32 33 34 35 36 37 38 39 40 41 42 43 44 45 46 47 48 49 50
000
AXUS43 KLBF 241110
MISLBF


WESTERN AND NORTH CENTRAL NEBRASKA HOURLY WEATHER ROUNDUP
NATIONAL WEATHER SERVICE NORTH PLATTE NE
600 AM CDT TUE MAY 24 2016

NOTE: "FAIR" INDICATES FEW OR NO CLOUDS BELOW 12,000 FEET WITH NO
SIGNIFICANT WEATHER AND/OR OBSTRUCTIONS TO VISIBILITY.

NOTE: STATIONS NOT REPORTING VARIABLES SUCH AS SKY/WEATHER OR
PRESSURE ARE PROVIDED BY RAWS AND APRS NETWORKS AND ARE NOT UNDER
NATIONAL WEATHER SERVICE QUALITY CONTROL.

...OBSERVATIONS IN AND NEAR THE EASTERN PANHANDLE OF NEBRASKA...

CITY           SKY/WX    TMP DP  RH WIND       PRES   REMARKS
PINE RIDGE     CLEAR     37  33  85 CALM      29.87R
CHADRON        CLEAR     37  34  89 NE6       29.88R WCI  32
ALLIANCE       CLEAR     35  33  92 CALM      29.88S
SIDNEY         MOCLDY    42  39  89 NW7       29.92R
BIG SPRINGS      N/A     47  44  88 CALM        N/A
$$

...OBSERVATIONS IN NORTHERN NEBRASKA AND FAR SOUTHERN SOUTH DAKOTA...

CITY           SKY/WX    TMP DP  RH WIND       PRES   REMARKS
WINNER         FAIR      51  42  71 NE3       29.81R
VALENTINE      CLEAR     43  40  89 W6        29.85R
THEDFORD       CLOUDY    49  44  84 S5        29.90R
AINSWORTH      CLEAR     50  43  76 W5        29.86R
O`NEILL        CLOUDY    51  46  84 SW5       29.84R
ORD            CLOUDY    52  51  97 CALM      29.86R
BROKEN BOW     CLOUDY    50  47  89 CALM      29.89R
BUTTE            N/A     55  44  67 W3          N/A
CHAMBERS         N/A     53  48  84 S3          N/A
EWING            N/A     56  55  97 CALM        N/A
$$

...OBSERVATIONS IN SOUTHWEST NEBRASKA AND FAR NORTHEAST COLORADO...

CITY           SKY/WX    TMP DP  RH WIND       PRES   REMARKS
WRAY           CLOUDY    52  50  93 NE3       29.89R
HOLYOKE        FAIR      54  46  76 NW7       29.90R
IMPERIAL       CLOUDY    56  47  71 SE8       29.86R
OGALLALA       PTCLDY    45  41  87 CALM      29.89S
NORTH PLATTE   CLOUDY    53  49  86 CALM      29.90R
MCCOOK         CLOUDY    57  48  72 N14       29.89R
LEXINGTON      CLOUDY    55  49  81 W8        29.91R
PAXTON           N/A     51  47  88 CALM        N/A
STAPLETON        N/A     50  46  84 CALM        N/A
GOTHENBURG       N/A     56  46  70 W3          N/A
CALLAWAY         N/A     51  48  89 S6          N/A
$$

...OBSERVATIONS IN CENTRAL LINCOLN COUNTY AREA...

CITY           SKY/WX    TMP DP  RH WIND       PRES   REMARKS
N.P. AIRPORT   CLOUDY    53  49  86 CALM      29.90R
N.P. DOWNTOWN    N/A     56  48  73 CALM        N/A
N.P. SOUTHEAST   N/A     56  48  74 CALM        N/A
N.P. HILLCREST   N/A     53  47  81 CALM        N/A
$$

...SOME OBSERVATIONS FROM AROUND THE REGION...

CITY           SKY/WX    TMP DP  RH WIND       PRES   REMARKS
DENVER         PTCLDY    48  42  80 SW10      29.93S
LARAMIE        CLOUDY    32  30  92 S6        29.98S WCI  26
CHEYENNE       CLEAR     39  35  86 W7        29.95S WCI  34
SCOTTSBLUFF    CLEAR     39  36  89 CALM      29.90R
RAPID CITY     CLEAR     47  35  63 NW10      29.87R
BISMARCK       CLEAR     47  44  90 NW5       29.82R
PIERRE         CLEAR     46  43  89 N7        29.78R
SIOUX FALLS    MOCLDY    61  59  93 S6        29.80S FOG
OMAHA          CLOUDY    61  58  90 S3        29.84R
GRAND ISLAND   CLOUDY    58  58 100 SW3       29.87R FOG
KANSAS CITY    CLOUDY    62  60  93 SW6       29.92R
WICHITA        CLOUDY    70  67  90 E8        29.85R
OKLAHOMA CITY  CLOUDY    74  67  78 S14G24    29.76F
DALLAS         MOCLDY    75  69  81 S13       29.89R
AMARILLO       PTCLDY    67  64  90 S16       29.87R
DODGE CITY     CLEAR     64  64 100 S7        29.80R
HAYS           CLOUDY    57  48  72 E18       29.87F
GOODLAND       CLOUDY    55  44  66 NE14      29.87R
$$




USA.gov is the U.S. government's official web portal to all federal, state and local government web resources and services.